Regional Weather Roundup
Issued by NWS Albany, NY

Home | Current Version | Previous Version | Text Only | Print | Product List | Glossary On
Versions: 1 2 3 4 5 6 7 8 9 10 11 12 13 14 15 16 17 18 19 20 21 22 23 24 25 26 27
000
ASUS41 KALY 231910
RWRALY

NEW YORK STATE HOURLY WEATHER ROUNDUP
NATIONAL WEATHER SERVICE ALBANY NY
300 PM EDT THU OCT 23 2014

NOTE: "FAIR" INDICATES FEW OR NO CLOUDS BELOW 12,000 FEET WITH NO
SIGNIFICANT WEATHER AND/OR NO OBSTRUCTIONS TO VISIBILITY.

NYZ032-033-038>043-046>054-057>066-NYZ062>081-232000-
EAST


CITY           SKY/WX    TMP DP  RH WIND       PRES   REMARKS
ALBANY         CLOUDY    49  44  83 N9G20     29.82F
GLENS FALLS    LGT RAIN  47  43  86 N20G29    29.83S
POUGHKEEPSIE   CLOUDY    50  45  83 N13G26    29.74F
NEWBURGH       PTSUNNY   50  48  93 N12G23    29.74F
MONTGOMERY     CLOUDY    51  48  89 NE7       29.74S
WHITE PLAINS   PTSUNNY   50  45  83 NW22G32   29.67S
ISLIP          CLOUDY    52  48  86 N16       29.62S
NEW YORK CITY  RAIN      51  47  86 N17G25    29.70R FOG
CENTRAL PARK   LGT RAIN  51  47  86 N10G17    29.73S FOG
$$

NYZ005>009-017-018-044>046-055-056-232000-
CENTRAL


CITY           SKY/WX    TMP DP  RH WIND       PRES   REMARKS
FULTON         CLOUDY    53  40  61 N12G22    29.96F
SYRACUSE       LGT RAIN  53  41  63 NW14G25   29.95R
ROME           LGT RAIN  49  42  77 NW14      29.91F
ELMIRA         CLOUDY    54  44  69 NE10G31   29.93S
BINGHAMTON     LGT RAIN  46  41  82 NW14G28   29.87S
MONTICELLO     CLOUDY    46  43  87 NW13G21   29.79S
$$

NYZ026>034-041>043-232000-
NORTH


CITY           SKY/WX    TMP DP  RH WIND       PRES   REMARKS
WATERTOWN      CLOUDY    54  39  57 N16       29.97S
FORT DRUM      NOT AVBL
MASSENA        CLOUDY    47  43  86 NE12      30.02S
SARANAC LAKE   CLOUDY    42  40  92 NE10      29.91F FOG
PLATTSBURGH    LGT RAIN  45  44  97 N14       29.95F FOG
$$

NYZ001>004-010>016-019>021-232000-
WEST


CITY           SKY/WX    TMP DP  RH WIND       PRES   REMARKS
NIAGARA FALLS  MOSUNNY   58  41  53 NW15      30.07F
BUFFALO        MOSUNNY   59  39  47 NW12      30.06F
DUNKIRK        SUNNY     57  40  52 NW9       30.08F
JAMESTOWN      SUNNY     54  37  54 NW13G20   30.06F
WELLSVILLE     CLOUDY    54  37  52 N18G30    29.99F
ROCHESTER      PTSUNNY   57  40  52 NW18      30.01F
PENN YAN       CLOUDY    54  42  64 NW15G24   29.97S
$$

             KEY
       WCI = WIND CHILL INDEX
       VSB = VISIBILITY
       HX  = HEAT INDEX
$$



USA.gov is the U.S. government's official web portal to all federal, state and local government web resources and services.